Regional Weather Roundup
Issued by NWS Sioux Falls, SD

Home | Current Version | Previous Version | Text Only | Print | Product List | Glossary On
Versions: 1 2 3 4 5 6 7 8 9 10 11 12 13 14 15 16 17 18 19 20 21 22 23 24 25 26 27 28 29 30 31 32 33 34 35 36 37 38 39 40 41 42 43 44 45 46 47 48 49 50
000
ASUS43 KFSD 211502
RWRFSD

WEATHER ROUNDUP FOR SE SOUTH DAKOTA/SW MINNESOTA/NW IOWA
NATIONAL WEATHER SERVICE SIOUX FALLS SD
1000 AM CDT TUE OCT 21 2014

NOTE: "FAIR" INDICATES FEW OR NO CLOUDS BELOW 12,000 FEET WITH NO
SIGNIFICANT WEATHER AND OR OBSTRUCTIONS TO VISIBILITY.


SDZ038>040-050-052>070-211600-
SOUTHEAST SOUTH DAKOTA

CITY           SKY/WX    TMP DP  RH WIND       PRES   REMARKS
CHAMBERLAIN    SUNNY     56  43  61 SE6       29.94S
HURON          SUNNY     56  38  50 S14G22    29.97S
MADISON        FAIR      52  39  62 SE12      30.05F
MITCHELL       SUNNY     55  40  56 SE16      30.00F
SIOUX FALLS    SUNNY     54  41  61 SE8       30.07F
WINNER         FAIR      65  42  43 S22G33    29.92S
YANKTON        SUNNY     50  43  76 E6        30.06S
$$

MNZ071-072-080-081-089-090-097-098-211600-
SOUTHWEST MINNESOTA

CITY           SKY/WX    TMP DP  RH WIND       PRES   REMARKS
FAIRMONT       SUNNY     46  37  71 S7        30.16R
JACKSON        SUNNY     50  41  71 SE8       30.14S
LUVERNE        SUNNY     50  41  71 SE5       30.10F
MARSHALL       SUNNY     46  37  71 SE8       30.09F
MONTEVIDEO     SUNNY     48  41  76 S16       30.11F
PIPESTONE      SUNNY     54  39  58 S10       30.08S
REDWOOD FALLS  SUNNY     47  40  76 SE13      30.14R
TRACY          SUNNY     53  43  69 S8        30.11S
WINDOM         SUNNY     50  43  76 SE5       30.13S
WORTHINGTON    SUNNY     52  41  66 SE8       30.12F
$$

IAZ001>003-012>014-020>022-031-032-NEZ013-014-SDZ071-211600-
NORTHWEST IOWA

CITY           SKY/WX    TMP DP  RH WIND       PRES   REMARKS
CHEROKEE       SUNNY     47  43  88 CALM      30.13S
DENISON        SUNNY     46  45  93 CALM      30.12S
ESTHERVILLE    SUNNY     47  42  83 S6        30.15R
LE MARS        SUNNY     54  45  71 S7        30.11S
ORANGE CITY    SUNNY     55  43  62 S6        30.10F
SHELDON        SUNNY     54  43  66 SE7       30.10S
SIOUX CITY     SUNNY     50  43  77 SE7       30.11S
SPENCER        SUNNY     50  42  74 SE8       30.14S
STORM LAKE     SUNNY     52  43  71 SE7       30.14S
$$

ABBREVIATIONS USED IN REMARKS
   TC - TEMPERATURE IN CELSIUS
  WCI - WIND CHILL INDEX
   HX - HEAT INDEX
  VSB - VISIBILITY



USA.gov is the U.S. government's official web portal to all federal, state and local government web resources and services.